FW7729 Weather Reports


Display with metric or nautical units.
time (UTC)temp
F
wind
direction
speed
MPH
gust
MPH
rain 1hr
in
rain 24hr
in
rain mn
in
humidity
%
barometer
mb
20260905234639 75 80 0.0 0.0 0.00 0.00 0.00 94 1010.9
20260905234105 75 80 0.0 0.0 0.00 0.00 0.00 93 1010.8
20260905233531 75 80 0.0 0.0 0.00 0.00 0.00 93 1010.8
20260905232957 76 80 0.0 0.0 0.00 0.00 0.00 92 1010.7
20260905230753 76 80 0.0 0.0 0.00 0.00 0.00 92 1010.5
20260905230219 76 80 0.0 0.0 0.00 0.00 0.00 91 1010.5
20260905225114 77 80 0.0 0.0 0.00 0.00 0.00 90 1010.5
20260905224540 77 80 0.0 0.0 0.00 0.00 0.00 90 1010.5
20260905224006 77 80 0.0 0.0 0.00 0.00 0.00 90 1010.5
20260905223432 77 79 0.0 0.0 0.00 0.00 0.00 89 1010.4
20260905222858 77 80 0.0 0.0 0.00 0.00 0.00 88 1010.4
20260905222324 77 80 0.0 0.0 0.00 0.00 0.00 90 1010.4
20260905221750 77 80 0.0 0.0 0.00 0.00 0.00 90 1010.4
20260905221216 77 80 0.0 0.0 0.00 0.00 0.00 91 1010.5
20260905220112 77 80 0.0 0.0 0.00 0.00 0.00 89 1010.3
20260905215538 77 80 0.0 0.0 0.00 0.00 0.00 88 1010.3
20260905215004 77 80 0.0 0.0 0.00 0.00 0.00 90 1010.1
20260905214430 77 80 0.0 0.0 0.00 0.00 0.00 90 1010.1
20260905213855 78 80 0.0 0.0 0.00 0.00 0.00 89 1010.1
20260905213321 78 80 0.0 0.0 0.00 0.00 0.00 89 1010.1
20260905212747 78 80 0.0 0.0 0.00 0.01 0.00 88 1009.8
20260905211113 78 112 0.0 0.0 0.00 0.01 0.00 88 1009.8
20260905210539 78 112 0.0 0.0 0.00 0.01 0.00 88 1009.6
20260905210005 78 112 0.0 0.0 0.00 0.01 0.00 89 1009.7
20260905205431 78 112 0.0 0.0 0.00 0.01 0.00 89 1009.5
20260905203226 79 112 0.0 0.0 0.00 0.01 0.00 87 1009.5
20260905202652 79 97 0.0 0.0 0.00 0.01 0.00 88 1009.8
20260905202118 79 110 1.0 0.0 0.00 0.01 0.00 86 1009.8
20260905201544 78 131 0.0 0.0 0.00 0.01 0.00 88 1009.8
20260905200440 78 131 0.0 0.0 0.00 0.01 0.00 89 1010.0
20260905195906 78 131 0.0 0.0 0.00 0.01 0.00 88 1009.9
20260905195332 78 131 0.0 0.0 0.00 0.01 0.00 88 1009.9
20260905194758 78 31 0.0 0.0 0.00 0.01 0.00 88 1010.1
20260905194224 78 29 0.0 0.0 0.00 0.01 0.00 88 1010.1
20260905193649 78 114 0.0 0.0 0.00 0.01 0.00 88 1010.1
20260905192016 78 73 1.0 0.0 0.00 0.01 0.00 88 1010.0
20260905191441 79 92 0.0 0.0 0.00 0.01 0.00 88 1010.1
20260905190337 78 87 0.0 0.0 0.00 0.01 0.00 88 1010.1
20260905184703 78 76 0.0 0.0 0.00 0.01 0.00 88 1010.4
20260905184129 78 73 0.0 0.0 0.00 0.01 0.00 89 1010.4
20260905182455 78 119 0.0 0.0 0.00 0.01 0.00 89 1010.5
20260905181921 78 91 0.0 0.0 0.00 0.01 0.00 90 1010.5
20260905181347 78 90 0.0 0.0 0.00 0.01 0.00 90 1010.7
20260905175142 78 70 0.0 0.0 0.00 0.01 0.00 91 1010.9
20260905174038 77 105 0.0 0.0 0.00 0.01 0.00 91 1011.1
20260905173504 77 105 0.0 0.0 0.00 0.01 0.00 92 1011.2
20260905172400 78 105 0.0 0.0 0.00 0.01 0.00 92 1011.2
20260905171256 78 85 0.0 0.0 0.00 0.01 0.00 91 1011.5
20260905164522 77 84 0.0 0.0 0.00 0.01 0.00 91 1011.6
20260905163947 77 84 0.0 0.0 0.00 0.01 0.00 91 1011.7
20260905163414 77 86 0.0 0.0 0.00 0.01 0.00 93 1011.6
20260905162840 77 85 0.0 0.0 0.00 0.01 0.00 92 1011.8
20260905162306 77 85 0.0 0.0 0.00 0.01 0.00 92 1011.8
20260905161731 76 85 0.0 0.0 0.00 0.01 0.00 93 1011.8
20260905160627 77 85 0.0 0.0 0.00 0.01 0.00 92 1012.1
20260905160052 77 85 1.0 0.0 0.00 0.01 0.00 93 1012.1
20260905155518 76 121 0.0 0.0 0.00 0.01 0.00 93 1012.0
20260905154944 76 121 0.0 0.0 0.00 0.01 0.00 94 1012.1
20260905154410 76 135 0.0 0.0 0.00 0.01 0.00 96 1012.0
20260905153306 76 120 0.0 0.0 0.00 0.01 0.00 95 1012.1
20260905152732 76 134 0.0 0.0 0.00 0.01 0.00 97 1012.1
20260905152158 76 134 0.0 0.0 0.00 0.01 0.00 97 1012.1
20260905150524 76 134 0.0 0.0 0.00 0.01 0.00 97 1012.2
20260905145949 76 134 0.0 0.0 0.00 0.01 0.00 96 1012.2
20260905144845 76 134 0.0 0.0 0.00 0.01 0.00 97 1012.1
20260905144311 76 134 0.0 0.0 0.00 0.01 0.00 97 1012.0
20260905141007 75 131 0.0 0.0 0.00 0.01 0.00 97 1012.0
20260905135903 75 93 1.0 0.0 0.00 0.01 0.00 99 1011.7
20260905134229 74 83 0.0 0.0 0.00 0.01 0.00 10 1011.4
20260905133654 74 141 0.0 0.0 0.00 0.01 0.00 10 1011.5
20260905133120 74 269 0.0 0.0 0.00 0.01 0.00 10 1011.5
20260905132546 74 281 1.0 0.0 0.00 0.01 0.00 10 1011.4
20260905131443 73 238 0.0 0.0 0.00 0.01 0.00 10 1011.5
20260905130908 73 238 0.0 0.0 0.00 0.01 0.00 10 1011.5
20260905130334 72 273 0.0 0.0 0.00 0.01 0.00 10 1011.4
20260905125800 72 273 0.0 0.0 0.00 0.01 0.00 10 1011.4
20260905125226 72 273 0.0 0.0 0.00 0.01 0.00 10 1011.5
20260905124652 72 273 0.0 0.0 0.00 0.01 0.00 10 1011.3
20260905123548 71 273 0.0 0.0 0.00 0.01 0.00 10 1011.3
20260905122444 71 273 0.0 0.0 0.00 0.01 0.00 10 1011.2
20260905121910 71 273 0.0 0.0 0.00 0.01 0.00 10 1011.3
20260905120806 70 273 0.0 0.0 0.00 0.01 0.00 10 1011.3
20260905120232 70 273 0.0 0.0 0.00 0.01 0.00 10 1011.3
20260905115128 70 273 0.0 0.0 0.00 0.01 0.00 10 1011.2
20260905114024 69 273 0.0 0.0 0.00 0.01 0.00 10 1011.2
20260905113450 69 273 0.0 0.0 0.00 0.01 0.00 10 1011.0
20260905112346 69 273 0.0 0.0 0.00 0.01 0.00 10 1011.1
20260905111812 69 273 0.0 0.0 0.00 0.01 0.00 10 1011.2
20260905111237 69 273 0.0 0.0 0.00 0.01 0.00 10 1011.1
20260905110133 69 273 0.0 0.0 0.00 0.01 0.00 10 1010.5
20260905105559 69 273 0.0 0.0 0.00 0.01 0.00 10 1010.5
20260905105026 69 273 0.0 0.0 0.00 0.01 0.00 10 1010.4
20260905104451 69 273 0.0 0.0 0.00 0.01 0.00 10 1010.4
20260905103347 69 273 0.0 0.0 0.00 0.01 0.00 10 1010.3
20260905102243 69 273 0.0 0.0 0.00 0.01 0.00 10 1010.1
20260905101139 69 273 0.0 0.0 0.00 0.01 0.00 10 1010.2
20260905100605 69 273 0.0 0.0 0.00 0.01 0.00 10 1010.3
20260905100030 69 273 0.0 0.0 0.00 0.01 0.00 10 1010.2
20260905094356 69 273 0.0 0.0 0.00 0.01 0.00 10 1010.1
20260905093822 70 273 0.0 0.0 0.00 0.01 0.00 10 1010.1
20260905093248 69 273 0.0 0.0 0.00 0.01 0.00 10 1010.0
20260905092714 70 273 0.0 0.0 0.00 0.01 0.00 10 1010.1
20260905092139 70 273 0.0 0.0 0.00 0.01 0.00 10 1010.1
20260905091605 70 273 0.0 0.0 0.00 0.01 0.00 10 1010.0
20260905091032 70 273 0.0 0.0 0.00 0.01 0.00 10 1010.0
20260905085357 70 273 0.0 0.0 0.00 0.01 0.00 10 1010.0
20260905084823 70 273 0.0 0.0 0.00 0.01 0.00 10 1010.1
20260905084249 70 273 0.0 0.0 0.00 0.01 0.00 10 1009.9
20260905083715 70 273 0.0 0.0 0.00 0.01 0.00 10 1010.0
20260905083141 70 273 0.0 0.0 0.00 0.02 0.00 10 1010.0
20260905080407 70 273 0.0 0.0 0.00 0.02 0.00 10 1010.1
20260905075833 70 274 0.0 0.0 0.00 0.02 0.00 10 1010.3
20260905074728 70 273 0.0 0.0 0.00 0.02 0.00 10 1010.4
20260905074154 70 273 0.0 0.0 0.00 0.02 0.00 10 1010.3
20260905073050 71 273 0.0 0.0 0.00 0.02 0.00 10 1010.4
20260905071946 71 273 0.0 0.0 0.00 0.02 0.00 10 1010.4
20260905071412 71 273 0.0 0.0 0.00 0.02 0.00 10 1010.4
20260905070838 71 273 0.0 0.0 0.00 0.02 0.00 10 1010.5
20260905070303 71 273 0.0 0.0 0.00 0.02 0.00 10 1010.4
20260905065729 71 273 0.0 0.0 0.00 0.02 0.00 10 1010.5
20260905064625 71 273 0.0 0.0 0.00 0.02 0.00 10 1010.6
20260905063521 71 273 0.0 0.0 0.00 0.02 0.00 10 1010.9
20260905061847 71 273 0.0 0.0 0.00 0.02 0.00 10 1011.2
20260905061313 71 273 0.0 0.0 0.00 0.02 0.00 10 1011.4
20260905060209 71 273 0.0 0.0 0.00 0.02 0.00 10 1011.5
20260905055105 71 273 0.0 0.0 0.00 0.02 0.00 10 1011.5
20260905054530 71 273 0.0 0.0 0.00 0.02 0.00 10 1011.6
20260905053956 71 273 0.0 0.0 0.00 0.02 0.00 10 1011.6
20260905053422 71 273 0.0 0.0 0.00 0.02 0.00 10 1011.8
20260905052848 71 273 0.0 0.0 0.00 0.07 0.00 10 1011.7
20260905052315 71 273 0.0 0.0 0.00 0.07 0.00 10 1011.8
20260905051210 71 273 0.0 0.0 0.00 0.07 0.00 10 1011.8
20260905050636 71 273 0.0 0.0 0.00 0.07 0.00 10 1011.9
20260905045528 72 273 0.0 0.0 0.00 0.07 0.00 10 1012.0
20260905044954 72 274 0.0 0.0 0.00 0.07 0.00 10 1012.0
20260905044420 72 273 0.0 0.0 0.00 0.07 0.00 10 1012.0
20260905043846 72 273 0.0 0.0 0.00 0.07 0.00 10 1012.0
20260905042742 72 273 0.0 0.0 0.00 0.72 0.07 10 1012.1
20260905042208 72 273 0.0 0.0 0.00 0.72 0.07 10 1012.1
20260905040004 72 273 0.0 0.0 0.00 0.72 0.07 10 1012.2
20260905035430 72 274 0.0 0.0 0.00 0.72 0.07 10 1012.3
20260905034856 72 359 0.0 0.0 0.00 0.72 0.07 10 1012.2
20260905034322 72 273 0.0 0.0 0.00 0.72 0.07 10 1012.3
20260905033748 72 273 0.0 0.0 0.00 0.72 0.07 10 1012.3
20260905032643 72 274 0.0 0.0 0.00 0.90 0.07 10 1012.4
20260905032109 72 274 0.0 0.0 0.00 0.90 0.07 10 1012.3
20260905031535 72 273 0.0 0.0 0.00 0.90 0.07 10 1012.4
20260905031002 72 273 0.0 0.0 0.00 0.90 0.07 10 1012.4
20260905030427 72 273 0.0 0.0 0.00 0.90 0.07 10 1012.4
20260905025853 72 274 0.0 0.0 0.00 0.90 0.07 10 1012.3
20260905024749 72 273 0.0 0.0 0.00 0.90 0.07 10 1012.4
20260905024215 72 273 0.0 0.0 0.00 0.90 0.07 10 1012.3
20260905023640 72 274 0.0 0.0 0.00 0.90 0.07 10 1012.4
20260905022536 72 273 0.0 0.0 0.00 0.90 0.07 10 1012.4
20260905022002 72 273 0.0 0.0 0.00 0.90 0.07 10 1012.2
20260905020858 72 273 0.0 0.0 0.00 0.90 0.07 10 1012.0
20260905020324 72 273 0.0 0.0 0.00 0.90 0.07 10 1011.7
20260905015750 72 273 0.0 0.0 0.00 0.90 0.07 10 1011.9
20260905015216 72 272 0.0 0.0 0.00 0.90 0.07 10 1011.9
20260905013012 72 274 0.0 0.0 0.00 0.90 0.07 10 1011.8
20260905012438 73 273 0.0 0.0 0.00 0.90 0.07 10 1011.7
20260905011904 73 273 0.0 0.0 0.00 0.90 0.07 10 1011.5
20260905011330 73 276 0.0 0.0 0.00 0.90 0.07 10 1011.4
20260905010225 73 276 0.0 0.0 0.00 0.90 0.07 10 1011.2
20260905005121 73 276 0.0 0.0 0.00 0.90 0.07 10 1011.2
20260905004547 73 276 0.0 0.0 0.00 0.90 0.07 10 1011.2
20260905004013 73 276 0.0 0.0 0.00 0.90 0.07 10 1011.3
20260905002339 73 275 0.0 0.0 0.00 0.90 0.07 10 1011.3
20260905001805 74 276 0.0 0.0 0.00 0.90 0.07 10 1011.2
20260905001230 74 276 0.0 0.0 0.00 0.90 0.07 10 1011.2
20260904235556 74 276 0.0 0.0 0.00 0.90 0.07 10 1011.3
20260904235022 74 276 0.0 0.0 0.00 0.90 0.07 10 1011.3